Zurück zum Katalog

IRIDE-MS2-HEO-9

AktivWissenschaftSSO
NORAD 64585·PAYLOAD·🇮🇹 Italy

Gestartet Jun 23, 2025 von Vandenberg Space Force Base

Loading…

Nächste Überflüge (nächste 24 Stunden)

TLE

AktuellSource: Space-Track

Epoche: Sep 14, 2026, 13:28 UTC

1 64585U 25135BK  26257.56164562  .00001146  00000-0  11874-3 0  9997
2 64585  97.7835  10.9382 0002304  83.5999 276.5482 14.91943316 67226

Verfolge IRIDE-MS2-HEO-9 in Echtzeit mit AllMySat

Download on the App Store